Galax, VA

12:54 PM EDT on March 28, 2017 (GMT -0400)
Twin County

Weather History for KHLX - December, 2012

Change the Weather History Date:

Sunday, December 9, 2012

  Actual Average (KBLF) Record (KBLF)
Temperature  
Mean Temperature 56 °F -  
Max Temperature 66 °F 46 °F 69 °F (2007)
Min Temperature 46 °F 30 °F 9 °F (1962)
Degree Days  
Heating Degree Days 9    
Growing Degree Days 6 (Base 50)    
Moisture  
Dew Point 53 °F    
Average Humidity 88    
Maximum Humidity 100    
Minimum Humidity 68    
Precipitation  
Precipitation 0.00 in - - ()
Sea Level Pressure  
Sea Level Pressure 30.08 in    
Wind  
Wind Speed 5 mph (South)    
Max Wind Speed 16 mph    
Max Gust Speed 24 mph    
Visibility 8 miles    
Events Fog    
Averages and records for this station are not official NWS values.
T = Trace of Precipitation, MM = Missing Value Source: NWS Daily Summary

Daily Weather History Graph

Daily Weather History Graph

Search for Another Location

Airport or City:

Trip Planner

Search our weather history database for the weather conditions in past years. The results will help you decide how hot, cold, wet, or windy it might be!

Date:

Astronomy

Dec. 09, 2012 Rise Set
Actual Time 7:24 AM EST 5:07 PM EST
Civil Twilight 6:55 AM EST 5:35 PM EST
Nautical Twilight 6:23 AM EST 6:08 PM EST
Astronomical Twilight 5:52 AM EST 6:39 PM EST
Moon 3:00 AM EST (12/9) 2:08 PM EST (12/9)
Length of Visible Light 10h 40m
Length of Day
9h 42m
Waning Crescent, 19% of the Moon is Illuminated
Dec 9
Waning Crescent
Dec 13
New
Dec 20
First Quarter
Dec 28
Full
Jan 4
Last Quarter

Hourly Weather History & Observations

Time (EST) Temp. Dew Point Humidity Pressure Visibility Wind Dir Wind Speed Gust Speed Precip Events Conditions
12:15 AM 53.6 °F 51.8 °F 94% 30.07 in 10.0 mi South 4.6 mph - N/A   Clear
12:35 AM 53.6 °F 51.8 °F 94% 30.07 in 10.0 mi South 5.8 mph - N/A   Clear
12:55 AM 55.4 °F 51.8 °F 88% 30.07 in 10.0 mi South 5.8 mph - N/A   Clear
1:15 AM 55.4 °F 51.8 °F 88% 30.08 in 10.0 mi South 5.8 mph - N/A   Clear
1:35 AM 53.6 °F 51.8 °F 94% 30.09 in 10.0 mi SSW 5.8 mph - N/A   Scattered Clouds
2:15 AM 51.8 °F 50.0 °F 94% 30.09 in 7.0 mi Calm Calm - N/A   Scattered Clouds
2:35 AM 53.6 °F 51.8 °F 94% 30.09 in 10.0 mi Calm Calm - N/A   Clear
2:55 AM 53.6 °F 51.8 °F 94% 30.09 in 10.0 mi South 3.5 mph - N/A   Clear
3:15 AM 53.6 °F 51.8 °F 94% 30.08 in 5.0 mi Calm Calm - N/A   Clear
3:35 AM 51.8 °F 48.2 °F 88% 30.09 in 1.5 mi South 5.8 mph - N/A   Mist
3:55 AM 51.8 °F 51.8 °F 100% 30.08 in 5.0 mi South 3.5 mph - N/A   Clear
4:15 AM 51.8 °F 51.8 °F 100% 30.08 in 5.0 mi South 5.8 mph - N/A   Scattered Clouds
4:35 AM 51.8 °F 48.2 °F 88% 30.08 in 1.5 mi Calm Calm - N/A   Mist
4:55 AM 51.8 °F 50.0 °F 94% 30.09 in 7.0 mi SSW 4.6 mph - N/A   Clear
5:15 AM 51.8 °F 51.8 °F 100% 30.09 in 7.0 mi South 4.6 mph - N/A   Scattered Clouds
5:35 AM 51.8 °F 51.8 °F 100% 30.09 in 7.0 mi South 4.6 mph - N/A   Scattered Clouds
5:55 AM 51.8 °F 51.8 °F 100% 30.10 in 3.0 mi South 5.8 mph - N/A   Clear
6:15 AM 50.0 °F 48.2 °F 94% 30.11 in 0.8 mi SSW 3.5 mph - N/A   Mist
6:35 AM 51.8 °F 50.0 °F 94% 30.11 in 4.0 mi South 3.5 mph - N/A   Clear
6:55 AM 51.8 °F 50.0 °F 94% 30.11 in 5.0 mi South 3.5 mph - N/A   Clear
7:15 AM 50.0 °F 48.2 °F 94% 30.13 in 0.2 mi Calm Calm - N/A Fog Fog
7:35 AM 48.2 °F 48.2 °F 100% 30.13 in 0.2 mi Calm Calm - N/A Fog Fog
7:55 AM 48.2 °F 48.2 °F 100% 30.13 in 0.2 mi Calm Calm - N/A Fog Fog
8:15 AM 48.2 °F 48.2 °F 100% 30.13 in 0.2 mi Calm Calm - N/A Fog Fog
8:35 AM 46.4 °F 44.6 °F 93% 30.14 in 0.2 mi Calm Calm - N/A Fog Fog
8:55 AM 48.2 °F 46.4 °F 93% 30.14 in 0.2 mi Calm Calm - N/A Fog Fog
9:15 AM 50.0 °F 48.2 °F 94% 30.14 in 0.2 mi Calm Calm - N/A Fog Fog
9:35 AM 51.8 °F 51.8 °F 100% 30.14 in 2.5 mi Calm Calm - N/A   Overcast
9:55 AM 51.8 °F 51.8 °F 100% 30.14 in 0.5 mi Calm Calm - N/A Fog Fog
10:15 AM 55.4 °F 53.6 °F 94% 30.14 in 5.0 mi Calm Calm - N/A   Scattered Clouds
10:35 AM 57.2 °F 57.2 °F 100% 30.13 in 10.0 mi Calm Calm - N/A   Clear
10:55 AM 62.6 °F 57.2 °F 82% 30.13 in 10.0 mi Calm Calm - N/A   Clear
11:35 AM 64.4 °F 55.4 °F 73% 30.11 in 10.0 mi South 6.9 mph - N/A   Scattered Clouds
11:55 AM 64.4 °F 55.4 °F 73% 30.10 in 10.0 mi South 6.9 mph - N/A   Mostly Cloudy
12:15 PM 64.4 °F 55.4 °F 73% 30.09 in 10.0 mi South 8.1 mph - N/A   Mostly Cloudy
12:35 PM 66.2 °F 55.4 °F 68% 30.08 in 10.0 mi South 8.1 mph - N/A   Scattered Clouds
12:55 PM 66.2 °F 55.4 °F 68% 30.07 in 10.0 mi South 9.2 mph 18.4 mph N/A   Scattered Clouds
1:15 PM 66.2 °F 55.4 °F 68% 30.07 in 10.0 mi SSW 13.8 mph 19.6 mph N/A   Clear
1:35 PM 66.2 °F 55.4 °F 68% 30.06 in 10.0 mi South 13.8 mph 19.6 mph N/A   Clear
1:55 PM 66.2 °F 55.4 °F 68% 30.05 in 10.0 mi South 12.7 mph 21.9 mph N/A   Clear
2:15 PM 64.4 °F 55.4 °F 73% 30.05 in 10.0 mi South 9.2 mph 23.0 mph N/A   Clear
2:35 PM 64.4 °F 55.4 °F 73% 30.05 in 10.0 mi SSW 9.2 mph - N/A   Clear
2:55 PM 64.4 °F 55.4 °F 73% 30.05 in 10.0 mi South 12.7 mph 23.0 mph N/A   Clear
3:15 PM 62.6 °F 55.4 °F 77% 30.05 in 10.0 mi South 10.4 mph 13.8 mph N/A   Clear
3:35 PM 62.6 °F 55.4 °F 77% 30.05 in 10.0 mi South 16.1 mph 21.9 mph N/A   Clear
3:55 PM 62.6 °F 57.2 °F 82% 30.06 in 10.0 mi South 12.7 mph - N/A   Scattered Clouds
4:15 PM 60.8 °F 55.4 °F 82% 30.06 in 10.0 mi South 9.2 mph 17.3 mph N/A   Scattered Clouds
4:35 PM 59.0 °F 55.4 °F 88% 30.05 in 10.0 mi South 12.7 mph 18.4 mph N/A   Clear
4:55 PM 59.0 °F 55.4 °F 88% 30.05 in 10.0 mi South 11.5 mph 17.3 mph N/A   Clear
5:15 PM 59.0 °F 55.4 °F 88% 30.05 in 10.0 mi South 12.7 mph 24.2 mph N/A   Clear
5:35 PM 59.0 °F 55.4 °F 88% 30.06 in 10.0 mi South 12.7 mph 18.4 mph N/A   Scattered Clouds
5:55 PM 59.0 °F 55.4 °F 88% 30.06 in 10.0 mi South 9.2 mph 18.4 mph N/A   Scattered Clouds
6:15 PM 59.0 °F 55.4 °F 88% 30.07 in 10.0 mi South 8.1 mph 16.1 mph N/A   Scattered Clouds
6:35 PM 59.0 °F 55.4 °F 88% 30.08 in 10.0 mi SSW 8.1 mph - N/A   Mostly Cloudy
6:55 PM 59.0 °F 55.4 °F 88% 30.07 in 10.0 mi South 6.9 mph - N/A   Mostly Cloudy
7:15 PM 59.0 °F 55.4 °F 88% 30.07 in 10.0 mi South 5.8 mph - N/A   Scattered Clouds
7:35 PM 59.0 °F 55.4 °F 88% 30.06 in 10.0 mi South 5.8 mph - N/A   Scattered Clouds
7:55 PM 59.0 °F 57.2 °F 94% 30.05 in 10.0 mi South 4.6 mph - N/A   Clear
8:15 PM 59.0 °F 57.2 °F 94% 30.05 in 7.0 mi South 3.5 mph - N/A   Scattered Clouds
8:35 PM 59.0 °F 57.2 °F 94% 30.05 in 7.0 mi South 8.1 mph - N/A   Mostly Cloudy
8:55 PM 59.0 °F 55.4 °F 88% 30.05 in 10.0 mi South 4.6 mph - N/A   Mostly Cloudy
9:15 PM 59.0 °F 55.4 °F 88% 30.04 in 10.0 mi South 8.1 mph - N/A   Mostly Cloudy
9:35 PM 59.0 °F 55.4 °F 88% 30.04 in 10.0 mi South 5.8 mph - N/A   Mostly Cloudy
9:55 PM 59.0 °F 55.4 °F 88% 30.03 in 10.0 mi South 9.2 mph - N/A   Mostly Cloudy
10:15 PM 59.0 °F 55.4 °F 88% 30.02 in 10.0 mi South 9.2 mph - N/A   Scattered Clouds
10:35 PM 59.0 °F 55.4 °F 88% 30.01 in 10.0 mi South 10.4 mph 17.3 mph N/A   Mostly Cloudy
10:55 PM 59.0 °F 55.4 °F 88% 30.01 in 10.0 mi South 9.2 mph 16.1 mph N/A   Mostly Cloudy
11:15 PM 59.0 °F 55.4 °F 88% 30.00 in 10.0 mi South 9.2 mph 18.4 mph N/A   Scattered Clouds
11:35 PM 59.0 °F 55.4 °F 88% 30.00 in 10.0 mi South 8.1 mph - N/A   Mostly Cloudy
11:55 PM 59.0 °F 55.4 °F 88% 30.00 in 10.0 mi South 9.2 mph - N/A   Overcast